Meteo pe oră la Ablis

Astăzi, 29 Iulie, Joi

Timp Temperatura Precipitaţii Vânt Presiune Umiditate
00:00 +15°C° 0 mm 4 m/s 747 mmHg 72%
01:00 +14°C° 0 mm 4 m/s 747 mmHg 79%
02:00 +13°C° 0 mm 4 m/s 747 mmHg 85%
03:00 +11°C° 0 mm 3 m/s 747 mmHg 92%
04:00 +12°C° 0 mm 3 m/s 747 mmHg 90%
05:00 +12°C° 0 mm 3 m/s 747 mmHg 88%
06:00 +13°C° 0 mm 3 m/s 748 mmHg 86%
07:00 +14°C° 0 mm 4 m/s 748 mmHg 76%
08:00 +17°C° 0 mm 4 m/s 748 mmHg 66%
09:00 +19°C° 0 mm 5 m/s 748 mmHg 56%
10:00 +20°C° 0 mm 4 m/s 748 mmHg 52%
11:00 +21°C° 0 mm 4 m/s 747 mmHg 48%
12:00 +22°C° 0 mm 4 m/s 747 mmHg 44%
13:00 +23°C° 0 mm 4 m/s 747 mmHg 42%
14:00 +23°C° 0 mm 4 m/s 747 mmHg 41%
15:00 +25°C° 0 mm 4 m/s 747 mmHg 40%
16:00 +24°C° 0 mm 3 m/s 746 mmHg 44%
17:00 +24°C° 0 mm 2 m/s 746 mmHg 47%
18:00 +24°C° 0 mm 2 m/s 746 mmHg 50%
19:00 +21°C° 0 mm 2 m/s 745 mmHg 55%
20:00 +19°C° 0 mm 2 m/s 745 mmHg 59%
21:00 +18°C° 0 mm 2 m/s 745 mmHg 63%
22:00 +17°C° 0 mm 2 m/s 745 mmHg 65%
23:00 +17°C° 0 mm 2 m/s 745 mmHg 67%

Mâine, 30 Iulie, Vineri

Timp Temperatura Precipitaţii Vânt Presiune Umiditate
00:00 +16°C° 0 mm 3 m/s 744 mmHg 70%
01:00 +14°C° 0 mm 3 m/s 744 mmHg 74%
02:00 +14°C° 0 mm 3 m/s 744 mmHg 78%
03:00 +13°C° 0 mm 3 m/s 744 mmHg 81%
04:00 +13°C° 0 mm 3 m/s 744 mmHg 81%
05:00 +14°C° 0 mm 3 m/s 744 mmHg 80%
06:00 +14°C° 0 mm 4 m/s 744 mmHg 80%
07:00 +17°C° 0 mm 4 m/s 744 mmHg 76%
08:00 +19°C° 0 mm 5 m/s 744 mmHg 71%
09:00 +21°C° 0 mm 6 m/s 744 mmHg 67%
10:00 +21°C° 0.1 mm 6 m/s 744 mmHg 65%
11:00 +21°C° 0.1 mm 6 m/s 744 mmHg 63%
12:00 +21°C° 0.1 mm 7 m/s 744 mmHg 62%
13:00 +22°C° 0 mm 7 m/s 743 mmHg 54%
14:00 +23°C° 0 mm 8 m/s 743 mmHg 46%
15:00 +24°C° 0 mm 8 m/s 743 mmHg 38%
16:00 +23°C° 0 mm 8 m/s 743 mmHg 43%
17:00 +22°C° 0 mm 7 m/s 743 mmHg 49%
18:00 +21°C° 0 mm 7 m/s 744 mmHg 54%
19:00 +19°C° 0 mm 6 m/s 744 mmHg 60%
20:00 +17°C° 0 mm 5 m/s 744 mmHg 66%
21:00 +15°C° 0 mm 4 m/s 745 mmHg 71%
22:00 +15°C° 0 mm 4 m/s 745 mmHg 76%
23:00 +14°C° 0 mm 4 m/s 745 mmHg 81%

Poimâine, 31 Iulie, Sâmbătă

Timp Temperatura Precipitaţii Vânt Presiune Umiditate
00:00 +13°C° 0 mm 3 m/s 745 mmHg 85%
01:00 +12°C° 0 mm 3 m/s 745 mmHg 88%
02:00 +12°C° 0 mm 3 m/s 745 mmHg 91%
03:00 +11°C° 0 mm 3 m/s 745 mmHg 94%
04:00 +12°C° 0 mm 3 m/s 745 mmHg 92%
05:00 +12°C° 0 mm 3 m/s 745 mmHg 89%
06:00 +13°C° 0 mm 4 m/s 745 mmHg 87%
07:00 +15°C° 0 mm 4 m/s 745 mmHg 79%
08:00 +18°C° 0 mm 4 m/s 745 mmHg 71%
09:00 +19°C° 0 mm 4 m/s 746 mmHg 63%
10:00 +20°C° 0 mm 4 m/s 746 mmHg 60%
11:00 +21°C° 0 mm 5 m/s 745 mmHg 57%
12:00 +21°C° 0 mm 5 m/s 745 mmHg 54%
13:00 +22°C° 0 mm 4 m/s 745 mmHg 52%
14:00 +22°C° 0 mm 4 m/s 745 mmHg 50%
15:00 +22°C° 0 mm 4 m/s 745 mmHg 48%
16:00 +22°C° 0.2 mm 4 m/s 745 mmHg 52%
17:00 +21°C° 0.2 mm 3 m/s 745 mmHg 56%
18:00 +20°C° 0.2 mm 3 m/s 744 mmHg 60%
19:00 +19°C° 0.1 mm 2 m/s 745 mmHg 67%
20:00 +17°C° 0.1 mm 2 m/s 745 mmHg 73%
21:00 +16°C° 0.1 mm 2 m/s 745 mmHg 80%
22:00 +15°C° 0 mm 2 m/s 745 mmHg 83%
23:00 +15°C° 0 mm 2 m/s 745 mmHg 86%

1 August, Duminică

Timp Temperatura Precipitaţii Vânt Presiune Umiditate
00:00 +14°C° 0 mm 1 m/s 745 mmHg 89%
01:00 +14°C° 0 mm 1 m/s 745 mmHg 90%
02:00 +13°C° 0 mm 2 m/s 745 mmHg 91%
03:00 +13°C° 0 mm 2 m/s 745 mmHg 92%
04:00 +13°C° 0 mm 2 m/s 745 mmHg 89%
05:00 +14°C° 0 mm 2 m/s 745 mmHg 86%
06:00 +14°C° 0 mm 2 m/s 745 mmHg 83%
07:00 +16°C° 0 mm 2 m/s 746 mmHg 75%
08:00 +18°C° 0 mm 3 m/s 746 mmHg 67%
09:00 +19°C° 0 mm 3 m/s 746 mmHg 59%
10:00 +20°C° 0.1 mm 4 m/s 746 mmHg 56%
11:00 +21°C° 0.1 mm 4 m/s 746 mmHg 52%
12:00 +22°C° 0.1 mm 4 m/s 745 mmHg 49%
13:00 +22°C° 0 mm 4 m/s 745 mmHg 49%
14:00 +22°C° 0 mm 4 m/s 745 mmHg 50%
15:00 +22°C° 0 mm 4 m/s 745 mmHg 51%
16:00 +21°C° 0.1 mm 3 m/s 745 mmHg 54%
17:00 +21°C° 0.1 mm 3 m/s 746 mmHg 57%
18:00 +21°C° 0.1 mm 3 m/s 746 mmHg 60%
19:00 +19°C° 0.1 mm 2 m/s 746 mmHg 67%
20:00 +17°C° 0.1 mm 2 m/s 746 mmHg 74%
21:00 +16°C° 0.1 mm 2 m/s 746 mmHg 81%
22:00 +15°C° 0 mm 2 m/s 746 mmHg 84%
23:00 +15°C° 0 mm 2 m/s 746 mmHg 86%

2 August, Luni

Timp Temperatura Precipitaţii Vânt Presiune Umiditate
00:00 +14°C° 0 mm 2 m/s 746 mmHg 89%
01:00 +14°C° 0 mm 2 m/s 746 mmHg 90%
02:00 +14°C° 0 mm 2 m/s 746 mmHg 91%
03:00 +13°C° 0 mm 2 m/s 746 mmHg 92%
04:00 +14°C° 0 mm 2 m/s 746 mmHg 90%
05:00 +14°C° 0 mm 2 m/s 747 mmHg 87%
06:00 +15°C° 0 mm 2 m/s 747 mmHg 85%
07:00 +16°C° 0 mm 3 m/s 747 mmHg 80%
08:00 +17°C° 0 mm 3 m/s 747 mmHg 76%
09:00 +19°C° 0 mm 3 m/s 747 mmHg 72%
10:00 +19°C° 0.3 mm 3 m/s 747 mmHg 69%
11:00 +20°C° 0.3 mm 3 m/s 747 mmHg 66%
12:00 +21°C° 0.3 mm 3 m/s 747 mmHg 62%
13:00 +21°C° 0.3 mm 3 m/s 747 mmHg 60%
14:00 +22°C° 0.3 mm 3 m/s 747 mmHg 58%
15:00 +24°C° 0.3 mm 3 m/s 747 mmHg 55%
16:00 +22°C° 0.2 mm 3 m/s 747 mmHg 57%
17:00 +23°C° 0.2 mm 2 m/s 746 mmHg 59%
18:00 +21°C° 0.2 mm 2 m/s 746 mmHg 61%
19:00 +20°C° 0.1 mm 2 m/s 747 mmHg 65%
20:00 +19°C° 0.1 mm 2 m/s 747 mmHg 70%
21:00 +17°C° 0.1 mm 2 m/s 747 mmHg 74%
22:00 +17°C° 0 mm 2 m/s 747 mmHg 76%
23:00 +16°C° 0 mm 2 m/s 747 mmHg 78%

3 August, Marţi

Timp Temperatura Precipitaţii Vânt Presiune Umiditate
00:00 +15°C° 0 mm 2 m/s 747 mmHg 80%
01:00 +15°C° 0 mm 2 m/s 747 mmHg 81%
02:00 +15°C° 0 mm 2 m/s 747 mmHg 82%
03:00 +15°C° 0 mm 2 m/s 747 mmHg 82%
04:00 +15°C° 0 mm 2 m/s 747 mmHg 82%
05:00 +15°C° 0 mm 2 m/s 747 mmHg 82%
06:00 +15°C° 0 mm 2 m/s 748 mmHg 82%
07:00 +17°C° 0 mm 2 m/s 748 mmHg 73%
08:00 +18°C° 0 mm 2 m/s 748 mmHg 64%
09:00 +20°C° 0 mm 2 m/s 748 mmHg 55%
10:00 +21°C° 0 mm 2 m/s 748 mmHg 51%
11:00 +24°C° 0 mm 2 m/s 748 mmHg 47%
12:00 +25°C° 0 mm 3 m/s 747 mmHg 43%
13:00 +25°C° 0 mm 3 m/s 747 mmHg 43%
14:00 +25°C° 0 mm 3 m/s 747 mmHg 43%
15:00 +25°C° 0 mm 3 m/s 747 mmHg 43%
16:00 +24°C° 0 mm 2 m/s 747 mmHg 46%
17:00 +23°C° 0 mm 2 m/s 747 mmHg 48%
18:00 +23°C° 0 mm 2 m/s 747 mmHg 51%
19:00 +21°C° 0 mm 2 m/s 747 mmHg 54%
20:00 +20°C° 0 mm 3 m/s 747 mmHg 57%
21:00 +19°C° 0 mm 4 m/s 748 mmHg 60%
22:00 +18°C° 0 mm 3 m/s 748 mmHg 64%
23:00 +17°C° 0 mm 3 m/s 748 mmHg 68%
Arată mai mult

Formular de consimțământ

Meteoprog și furnizorii noștri de servicii pot stoca și accesa date personale, precum cookies, identificatori de dispozitiv sau alte tehnologii similare pe dispozitivul dumneavoastră și procesa astfel de date pentru a personaliza conținutul și reclamele, dar și pentru a oferi caracteristici de social media și pentru a analiza traficul.

  • Stocarea și/sau accesarea informațiilor pe dispozitivul dumneavoastră

    Cookies, identificatori de dispozitiv sau alte informații pot fi stocate sau accesate pe dispozitiv în scopurile indicate mai sus.

  • Reclame și conținut personalizat, evaluarea reclamelor și a conținutului, informații despre audiențe și dezvoltarea produselor

    Reclamele și conținutul pot fi personalizate pe baza unui profil. Pot fi adăugate date suplimentare pentru a personaliza mai bine reclamele și conținutul. Performanța reclamelor și conținutului poate fi măsurată. Pot fi obținute informații despre utilizatorii care au văzut reclamele și conținutul. Aceste date pot fi utilizate pentru a dezvolta sau îmbunătăți experiența utilizatorilor, sistemele și software-ul.

Dând clic pe ‘Sunt de acord’, permiteți utilizarea cookie-urilor menționate, a identificatorilor de dispozitiv, balizelor web sau altor tehnologii similare. Setările pot fi modificate din browser-ul dispozitivului dumneavoastră.

În anumite scopuri, interesele legitime pot prima asupra consimțământului. Puteți citi mai multe informații în acest sens în Politica privind Confidențialitatea Datelor și Cookie.